sat.trackr.live / text

‹ back to catalog

SHIYAN-27 OBJECT B

NORAD 63600 · 2025-078B

PAYLOAD ACTIVE UNKNOWN

§ Identity

Operator
Country
PRC
Launch date
2025-04-18
Launch site
TAISC
Launch vehicle
Mass (kg)
RCS (m²)

External: N2YO · Heavens-Above · Gunter

§ Orbital elements

Epoch: 2026-05-25T03:15:30.244608Z

Period
106.10 min
Inclination
99.6913°
Eccentricity
0.0001160
Mean motion
13.57244004 rev/d
Perigee alt
1,044.9 km
Apogee alt
1,046.6 km
Semi-major
7,423.9 km
B*
8.2565e-5
RAAN
152.6821°
Arg perigee
80.6483°
Mean anomaly
279.4787°
Rev number
5,440

§ Raw data

SHIYAN-27 OBJECT B1 63600U 25078B   26145.13576672  .00000015  00000+0  82565-4 0  99972 63600  99.6913 152.6821 0001160  80.6483 279.4787 13.57244004 54403

JSON: /api/v1/satellites/63600 · /tle

For live sub-satellite position, see the globe view (requires WebGL).

§ Visibility from observer

Set your observer location to see the next 7 days of passes ≥ 10°. The values pass through the URL so the page stays shareable.

No JS? Fill the form by hand. The geolocation button needs JavaScript.